Regional Weather Roundup
Issued by NWS

Home | Current Version | Previous Version | Graphics & Text | Print | Product List | Glossary Off
Versions: 1 2 3 4 5 6 7 8 9 10 11 12 13 14 15 16 17 18 19 20 21 22 23 24 25 26 27 28 29 30 31 32 33 34 35 36 37 38 39 40 41 42 43 44 45 46 47 48 49 50

672
ASUS43 KTOP 241008
RWRKS

WEATHER ROUNDUP FOR KANSAS
NATIONAL WEATHER SERVICE GOODLAND KS
500 AM CDT WED MAY 24 2017

NOTE:  "FAIR" INDICATES FEW OR NO CLOUDS BELOW 12,000 FEET WITH NO
SIGNIFICANT WEATHER AND/OR OBSTRUCTIONS TO VISIBILITY.

KSZ001>006-013>018-027>032-041>047-241100-
NORTHWEST KANSAS

CITY           SKY/WX    TMP DP  RH WIND       PRES   REMARKS
GOODLAND       CLEAR     35  33  92 W6        29.93F
HAYS           CLEAR     41  38  89 NW8       29.90F
HILL CITY      CLEAR     42  39  89 NW7       29.91F
RUSSELL        CLEAR     43  40  89 NW7       29.87S
$$

KSZ061>065-074>080-084>089-241100-
SOUTHWEST KANSAS

CITY           SKY/WX    TMP DP  RH WIND       PRES   REMARKS
DODGE CITY     CLEAR     41  37  86 NW9       29.92F
ELKHART          N/A     43  31  63 W6          N/A
GARDEN CITY    CLEAR     39  34  82 NW10      29.93F WCI  32
GREAT BEND     MOCLDY    43  40  89 NW7       29.89S
LIBERAL        CLEAR     40  37  89 NW7       29.95F
PRATT          CLEAR     40  37  90 NW8       29.88F
$$

KSZ066>073-081>083-090>101-241100-
SOUTHEAST KANSAS

CITY           SKY/WX    TMP DP  RH WIND       PRES   REMARKS
CHANUTE        CLEAR     50  45  83 NW8       29.76F
COFFEYVILLE    CLEAR     52  46  80 NW12      29.77F
HUTCHINSON     CLEAR     45  41  86 NW7       29.85F
MEDICINE LODGE   N/A     42  39  89 NW6       29.87F
NEWTON         CLEAR     46  43  89 NW9       29.84S
PARSONS        CLEAR     50  46  86 NW7       29.78S
WICHITA INTL   PTCLDY    48  43  82 NW10      29.83F
WICHITA JABRA  CLEAR     47  43  86 NW10      29.82F
WICHITA MCCONL CLEAR     49  42  78 NW10      29.82F
WINFIELD       CLEAR     47  43  86 NW9       29.83F
$$

KSZ007>012-019>026-033>040-048>060-102>105-241100-
NORTHEAST KANSAS

CITY           SKY/WX    TMP DP  RH WIND       PRES   REMARKS
CONCORDIA      CLEAR     43  43 100 W8        29.83F
EMPORIA        CLOUDY    49  45  86 NW12G17   29.78F
LAWRENCE       CLEAR     48  47  96 W9        29.75F
MANHATTAN      PTCLDY    48  44  86 VRB3      29.80F
MARYSVILLE     CLOUDY    48  46  93 NW9       29.79F
OLATHE IND     CLEAR     47  46  97 NW10      29.74S
OLATHE EXE     CLEAR     47  47 100 NW6       29.72F
SALINA         CLEAR     47  43  86 W9        29.84F
TOPEKA BILLARD PTCLDY    48  47  96 W8        29.76S
TOPEKA FORBES  MOCLDY    49  46  90 NW9       29.76S
$$




USA.gov is the U.S. government's official web portal to all federal, state and local government web resources and services.